date,time,SUV Intensity [MED/Hr],UV Index,Daily total [MED],Since Last [MED]
07/03/2022,00:05:27,0.000,0.0,0.0,0.0
07/03/2022,00:06:27,0.000,0.0,0.0,0.0
07/03/2022,00:07:28,0.000,0.0,0.0,0.0
07/03/2022,00:08:27,0.000,0.0,0.0,0.0
07/03/2022,00:09:27,0.000,0.0,0.0,0.0
07/03/2022,00:10:27,0.001,0.0,0.0,0.0
07/03/2022,00:11:27,0.000,0.0,0.0,0.0
07/03/2022,00:12:27,0.002,0.0,0.0,0.0
07/03/2022,00:13:28,0.000,0.0,0.0,0.0
07/03/2022,00:14:28,-0.001,0.0,0.0,0.0
07/03/2022,00:15:27,0.000,0.0,0.0,0.0
07/03/2022,00:16:36,0.000,0.0,0.0,0.0
07/03/2022,00:17:27,0.000,0.0,0.0,0.0
07/03/2022,00:18:27,0.000,0.0,0.0,0.0
07/03/2022,00:19:35,-0.001,0.0,0.0,0.0
07/03/2022,00:20:27,-0.000,0.0,0.0,0.0
07/03/2022,00:21:28,0.000,0.0,0.0,0.0
07/03/2022,00:22:28,-0.000,0.0,0.0,0.0
07/03/2022,00:23:27,0.001,0.0,0.0,0.0
07/03/2022,00:24:27,-0.000,0.0,0.0,0.0
07/03/2022,00:25:28,-0.001,0.0,0.0,0.0
07/03/2022,00:26:27,-0.001,0.0,0.0,0.0
07/03/2022,00:27:27,0.000,0.0,0.0,0.0
07/03/2022,00:28:27,-0.000,0.0,0.0,0.0
07/03/2022,00:29:27,0.001,0.0,0.0,0.0
07/03/2022,00:30:28,0.000,0.0,0.0,0.0
07/03/2022,00:31:28,0.000,0.0,0.0,0.0
07/03/2022,00:32:27,-0.000,0.0,0.0,0.0
07/03/2022,00:33:27,-0.001,0.0,0.0,0.0
07/03/2022,00:34:28,-0.000,0.0,0.0,0.0
07/03/2022,00:35:27,-0.000,0.0,0.0,0.0
07/03/2022,00:36:20,0.000,0.0,0.0,0.0
07/03/2022,00:37:29,-0.001,0.0,0.0,0.0
07/03/2022,00:38:27,-0.000,0.0,0.0,0.0
07/03/2022,00:39:27,0.000,0.0,0.0,0.0
07/03/2022,00:40:28,-0.000,0.0,0.0,0.0
07/03/2022,00:41:27,-0.000,0.0,0.0,0.0
07/03/2022,00:42:27,-0.000,0.0,0.0,0.0
07/03/2022,00:43:27,-0.000,0.0,0.0,0.0
07/03/2022,00:44:28,-0.000,0.0,0.0,0.0
07/03/2022,00:45:27,-0.001,0.0,0.0,0.0
07/03/2022,00:46:27,0.000,0.0,0.0,0.0
07/03/2022,00:47:28,-0.002,0.0,0.0,0.0
07/03/2022,00:48:28,-0.000,0.0,0.0,0.0
07/03/2022,00:49:28,-0.000,0.0,0.0,0.0
07/03/2022,00:50:27,-0.000,0.0,0.0,0.0
07/03/2022,00:51:27,-0.000,0.0,0.0,0.0
07/03/2022,00:52:28,0.001,0.0,0.0,0.0
07/03/2022,00:53:28,-0.000,0.0,0.0,0.0
07/03/2022,00:54:27,-0.001,0.0,0.0,0.0
07/03/2022,00:55:27,-0.000,0.0,0.0,0.0
07/03/2022,00:56:28,0.000,0.0,0.0,0.0
07/03/2022,00:57:28,0.001,0.0,0.0,0.0
07/03/2022,00:58:35,-0.001,0.0,0.0,0.0
07/03/2022,00:59:27,0.000,0.0,0.0,0.0
07/03/2022,01:00:28,-0.001,0.0,0.0,0.0
07/03/2022,01:01:27,-0.000,0.0,0.0,0.0
07/03/2022,01:02:28,0.000,0.0,0.0,0.0
07/03/2022,01:03:35,0.001,0.0,0.0,0.0
07/03/2022,01:04:27,-0.000,0.0,0.0,0.0
07/03/2022,01:05:28,-0.001,0.0,0.0,0.0
07/03/2022,01:06:27,-0.000,0.0,0.0,0.0
07/03/2022,01:07:28,-0.001,0.0,0.0,0.0
07/03/2022,01:08:27,-0.000,0.0,0.0,0.0
07/03/2022,01:09:27,-0.000,0.0,0.0,0.0
07/03/2022,01:10:27,-0.001,0.0,0.0,0.0
07/03/2022,01:11:28,-0.001,0.0,0.0,0.0
07/03/2022,01:12:28,-0.001,0.0,0.0,0.0
07/03/2022,01:13:36,-0.000,0.0,0.0,0.0
07/03/2022,01:14:27,-0.001,0.0,0.0,0.0
07/03/2022,01:15:27,-0.001,0.0,0.0,0.0
07/03/2022,01:16:28,0.000,0.0,0.0,0.0
07/03/2022,01:17:27,-0.001,0.0,0.0,0.0
07/03/2022,01:18:28,0.000,0.0,0.0,0.0
07/03/2022,01:19:27,-0.001,0.0,0.0,0.0
07/03/2022,01:20:27,-0.001,0.0,0.0,0.0
07/03/2022,01:21:28,-0.000,0.0,0.0,0.0
07/03/2022,01:22:28,-0.000,0.0,0.0,0.0
07/03/2022,01:23:28,-0.001,0.0,0.0,0.0
07/03/2022,01:24:27,-0.000,0.0,0.0,0.0
07/03/2022,01:26:20,-0.000,0.0,0.0,0.0
07/03/2022,01:27:28,-0.000,0.0,0.0,0.0
07/03/2022,01:28:28,0.000,0.0,0.0,0.0
07/03/2022,01:29:28,-0.000,0.0,0.0,0.0
07/03/2022,01:30:28,-0.001,0.0,0.0,0.0
07/03/2022,01:31:27,-0.001,0.0,0.0,0.0
07/03/2022,01:32:27,-0.000,0.0,0.0,0.0
07/03/2022,01:33:28,-0.001,0.0,0.0,0.0
07/03/2022,01:34:27,0.001,0.0,0.0,0.0
07/03/2022,01:35:27,-0.000,0.0,0.0,0.0
07/03/2022,01:36:27,-0.000,0.0,0.0,0.0
07/03/2022,01:37:36,-0.000,0.0,0.0,0.0
07/03/2022,01:38:26,-0.001,0.0,0.0,0.0
07/03/2022,01:39:28,-0.001,0.0,0.0,0.0
07/03/2022,01:40:28,-0.001,0.0,0.0,0.0
07/03/2022,01:41:28,-0.000,0.0,0.0,0.0
07/03/2022,01:42:27,-0.000,0.0,0.0,0.0
07/03/2022,01:43:28,-0.001,0.0,0.0,0.0
07/03/2022,01:44:28,0.000,0.0,0.0,0.0
07/03/2022,01:45:27,-0.000,0.0,0.0,0.0
07/03/2022,01:46:27,-0.000,0.0,0.0,0.0
07/03/2022,01:47:35,-0.000,0.0,0.0,0.0
07/03/2022,01:48:27,-0.001,0.0,0.0,0.0
07/03/2022,01:49:28,-0.001,0.0,0.0,0.0
07/03/2022,01:50:28,0.000,0.0,0.0,0.0
07/03/2022,01:51:27,-0.000,0.0,0.0,0.0
07/03/2022,01:52:28,-0.000,0.0,0.0,0.0
07/03/2022,01:53:28,-0.001,0.0,0.0,0.0
07/03/2022,01:54:28,0.000,0.0,0.0,0.0
07/03/2022,01:55:27,-0.000,0.0,0.0,0.0
07/03/2022,01:56:27,0.000,0.0,0.0,0.0
07/03/2022,01:57:28,-0.002,0.0,0.0,0.0
07/03/2022,01:58:36,-0.001,0.0,0.0,0.0
07/03/2022,01:59:28,-0.001,0.0,0.0,0.0
07/03/2022,02:00:27,-0.000,0.0,0.0,0.0
07/03/2022,02:01:28,-0.002,0.0,0.0,0.0
07/03/2022,02:02:28,-0.001,0.0,0.0,0.0
07/03/2022,02:03:28,-0.001,0.0,0.0,0.0
07/03/2022,02:04:27,-0.001,0.0,0.0,0.0
07/03/2022,02:05:28,-0.000,0.0,0.0,0.0
07/03/2022,02:06:28,-0.002,0.0,0.0,0.0
07/03/2022,02:07:27,-0.001,0.0,0.0,0.0
07/03/2022,02:08:31,-0.000,0.0,0.0,0.0
07/03/2022,02:09:28,-0.001,0.0,0.0,0.0
07/03/2022,02:10:27,-0.001,0.0,0.0,0.0
07/03/2022,02:11:28,-0.001,0.0,0.0,0.0
07/03/2022,02:12:28,-0.001,0.0,0.0,0.0
07/03/2022,02:13:28,-0.001,0.0,0.0,0.0
07/03/2022,02:14:27,-0.000,0.0,0.0,0.0
07/03/2022,02:15:27,-0.002,0.0,0.0,0.0
07/03/2022,02:16:28,-0.002,0.0,0.0,0.0
07/03/2022,02:17:27,-0.001,0.0,0.0,0.0
07/03/2022,02:18:36,-0.000,0.0,0.0,0.0
07/03/2022,02:19:35,-0.001,0.0,0.0,0.0
07/03/2022,02:20:28,-0.001,0.0,0.0,0.0
07/03/2022,02:21:29,-0.000,0.0,0.0,0.0
07/03/2022,02:22:27,0.000,0.0,0.0,0.0
07/03/2022,02:23:27,-0.001,0.0,0.0,0.0
07/03/2022,02:24:27,-0.001,0.0,0.0,0.0
07/03/2022,02:25:28,-0.001,0.0,0.0,0.0
07/03/2022,02:26:28,-0.001,0.0,0.0,0.0
07/03/2022,02:27:27,-0.001,0.0,0.0,0.0
07/03/2022,02:28:27,-0.001,0.0,0.0,0.0
07/03/2022,02:29:28,-0.001,0.0,0.0,0.0
07/03/2022,02:30:27,-0.001,0.0,0.0,0.0
07/03/2022,02:31:28,-0.000,0.0,0.0,0.0
07/03/2022,02:32:28,0.000,0.0,0.0,0.0
07/03/2022,02:33:28,-0.001,0.0,0.0,0.0
07/03/2022,02:34:27,0.000,0.0,0.0,0.0
07/03/2022,02:35:36,-0.001,0.0,0.0,0.0
07/03/2022,02:36:28,-0.001,0.0,0.0,0.0
07/03/2022,02:37:27,-0.001,0.0,0.0,0.0
07/03/2022,02:38:27,0.000,0.0,0.0,0.0
07/03/2022,02:39:27,-0.001,0.0,0.0,0.0
07/03/2022,02:40:28,-0.001,0.0,0.0,0.0
07/03/2022,02:41:18,-0.001,0.0,0.0,0.0
07/03/2022,02:42:29,-0.001,0.0,0.0,0.0
07/03/2022,02:43:27,-0.001,0.0,0.0,0.0
07/03/2022,02:44:27,-0.001,0.0,0.0,0.0
07/03/2022,02:45:36,-0.000,0.0,0.0,0.0
07/03/2022,02:46:34,0.001,0.0,0.0,0.0
07/03/2022,02:47:29,-0.001,0.0,0.0,0.0
07/03/2022,02:48:27,-0.001,0.0,0.0,0.0
07/03/2022,02:49:28,-0.001,0.0,0.0,0.0
07/03/2022,02:50:28,-0.001,0.0,0.0,0.0
07/03/2022,02:51:27,-0.001,0.0,0.0,0.0
07/03/2022,02:52:27,-0.001,0.0,0.0,0.0
07/03/2022,02:53:36,0.000,0.0,0.0,0.0
07/03/2022,02:54:26,-0.001,0.0,0.0,0.0
07/03/2022,02:55:28,-0.000,0.0,0.0,0.0
07/03/2022,02:56:27,-0.001,0.0,0.0,0.0
07/03/2022,02:57:27,0.000,0.0,0.0,0.0
07/03/2022,02:58:28,-0.002,0.0,0.0,0.0
07/03/2022,02:59:28,0.000,0.0,0.0,0.0
07/03/2022,03:00:28,-0.001,0.0,0.0,0.0
07/03/2022,03:01:27,-0.001,0.0,0.0,0.0
07/03/2022,03:02:28,0.000,0.0,0.0,0.0
07/03/2022,03:03:37,-0.000,0.0,0.0,0.0
07/03/2022,03:04:26,-0.000,0.0,0.0,0.0
07/03/2022,03:05:28,-0.001,0.0,0.0,0.0
07/03/2022,03:06:36,0.000,0.0,0.0,0.0
07/03/2022,03:07:26,-0.001,0.0,0.0,0.0
07/03/2022,03:08:28,0.000,0.0,0.0,0.0
07/03/2022,03:09:36,-0.002,0.0,0.0,0.0
07/03/2022,03:10:36,-0.000,0.0,0.0,0.0
07/03/2022,03:11:26,-0.002,0.0,0.0,0.0
07/03/2022,03:12:36,-0.002,0.0,0.0,0.0
07/03/2022,03:13:28,-0.001,0.0,0.0,0.0
07/03/2022,03:14:28,-0.001,0.0,0.0,0.0
07/03/2022,03:15:27,-0.001,0.0,0.0,0.0
07/03/2022,03:16:28,-0.001,0.0,0.0,0.0
07/03/2022,03:17:28,-0.001,0.0,0.0,0.0
07/03/2022,03:18:28,-0.002,0.0,0.0,0.0
07/03/2022,03:19:27,-0.001,0.0,0.0,0.0
07/03/2022,03:20:27,-0.000,0.0,0.0,0.0
07/03/2022,03:21:28,-0.001,0.0,0.0,0.0
07/03/2022,03:22:27,-0.001,0.0,0.0,0.0
07/03/2022,03:23:27,-0.001,0.0,0.0,0.0
07/03/2022,03:24:36,-0.001,0.0,0.0,0.0
07/03/2022,03:25:28,-0.001,0.0,0.0,0.0
07/03/2022,03:26:27,-0.002,0.0,0.0,0.0
07/03/2022,03:27:29,0.000,0.0,0.0,0.0
07/03/2022,03:28:28,-0.002,0.0,0.0,0.0
07/03/2022,03:29:27,-0.001,0.0,0.0,0.0
07/03/2022,03:30:28,-0.001,0.0,0.0,0.0
07/03/2022,03:31:28,-0.001,0.0,0.0,0.0
07/03/2022,03:32:28,-0.001,0.0,0.0,0.0
07/03/2022,03:33:27,-0.001,0.0,0.0,0.0
07/03/2022,03:34:36,-0.001,0.0,0.0,0.0
07/03/2022,03:35:28,-0.001,0.0,0.0,0.0
07/03/2022,03:36:27,-0.001,0.0,0.0,0.0
07/03/2022,03:37:28,-0.001,0.0,0.0,0.0
07/03/2022,03:38:36,-0.001,0.0,0.0,0.0
07/03/2022,03:39:28,-0.001,0.0,0.0,0.0
07/03/2022,03:40:27,-0.001,0.0,0.0,0.0
07/03/2022,03:42:29,-0.001,0.0,0.0,0.0
07/03/2022,03:43:27,-0.001,0.0,0.0,0.0
07/03/2022,03:44:27,-0.001,0.0,0.0,0.0
07/03/2022,03:45:28,-0.001,0.0,0.0,0.0
07/03/2022,03:46:27,-0.001,0.0,0.0,0.0
07/03/2022,03:47:28,-0.001,0.0,0.0,0.0
07/03/2022,03:48:27,-0.001,0.0,0.0,0.0
07/03/2022,03:49:28,-0.001,0.0,0.0,0.0
07/03/2022,03:50:28,-0.002,0.0,0.0,0.0
07/03/2022,03:51:28,-0.001,0.0,0.0,0.0
07/03/2022,03:52:28,-0.001,0.0,0.0,0.0
07/03/2022,03:53:28,0.000,0.0,0.0,0.0
07/03/2022,03:54:28,-0.001,0.0,0.0,0.0
07/03/2022,03:55:28,-0.001,0.0,0.0,0.0
07/03/2022,03:56:28,-0.002,0.0,0.0,0.0
07/03/2022,03:57:28,0.000,0.0,0.0,0.0
07/03/2022,03:58:28,-0.001,0.0,0.0,0.0
07/03/2022,03:59:28,-0.001,0.0,0.0,0.0
07/03/2022,04:00:28,-0.001,0.0,0.0,0.0
07/03/2022,04:01:28,0.001,0.0,0.0,0.0
07/03/2022,04:02:28,-0.002,0.0,0.0,0.0
07/03/2022,04:03:28,-0.001,0.0,0.0,0.0
07/03/2022,04:04:28,-0.001,0.0,0.0,0.0
07/03/2022,04:05:36,-0.001,0.0,0.0,0.0
07/03/2022,04:06:27,-0.002,0.0,0.0,0.0
07/03/2022,04:07:28,-0.001,0.0,0.0,0.0
07/03/2022,04:08:36,-0.001,0.0,0.0,0.0
07/03/2022,04:09:28,-0.001,0.0,0.0,0.0
07/03/2022,04:10:28,-0.001,0.0,0.0,0.0
07/03/2022,04:11:27,-0.001,0.0,0.0,0.0
07/03/2022,04:12:28,-0.001,0.0,0.0,0.0
07/03/2022,04:13:28,0.000,0.0,0.0,0.0
07/03/2022,04:14:27,-0.002,0.0,0.0,0.0
07/03/2022,04:15:36,-0.001,0.0,0.0,0.0
07/03/2022,04:16:28,-0.001,0.0,0.0,0.0
07/03/2022,04:17:28,-0.001,0.0,0.0,0.0
07/03/2022,04:18:27,-0.001,0.0,0.0,0.0
07/03/2022,04:19:37,-0.002,0.0,0.0,0.0
07/03/2022,04:20:28,-0.001,0.0,0.0,0.0
07/03/2022,04:21:28,0.000,0.0,0.0,0.0
07/03/2022,04:22:28,-0.001,0.0,0.0,0.0
07/03/2022,04:23:28,-0.001,0.0,0.0,0.0
07/03/2022,04:24:28,-0.001,0.0,0.0,0.0
07/03/2022,04:25:28,-0.002,0.0,0.0,0.0
07/03/2022,04:26:28,-0.000,0.0,0.0,0.0
07/03/2022,04:27:28,0.000,0.0,0.0,0.0
07/03/2022,04:28:28,-0.001,0.0,0.0,0.0
07/03/2022,04:29:36,-0.001,0.0,0.0,0.0
07/03/2022,04:30:28,-0.002,0.0,0.0,0.0
07/03/2022,04:31:36,-0.001,0.0,0.0,0.0
07/03/2022,04:32:36,0.000,0.0,0.0,0.0
07/03/2022,04:33:28,-0.001,0.0,0.0,0.0
07/03/2022,04:34:28,-0.001,0.0,0.0,0.0
07/03/2022,04:35:28,-0.001,0.0,0.0,0.0
07/03/2022,04:36:36,-0.001,0.0,0.0,0.0
07/03/2022,04:37:28,-0.001,0.0,0.0,0.0
07/03/2022,04:38:28,-0.001,0.0,0.0,0.0
07/03/2022,04:39:27,-0.001,0.0,0.0,0.0
07/03/2022,04:40:28,-0.001,0.0,0.0,0.0
07/03/2022,04:41:28,-0.001,0.0,0.0,0.0
07/03/2022,04:42:27,-0.001,0.0,0.0,0.0
07/03/2022,04:43:28,-0.001,0.0,0.0,0.0
07/03/2022,04:44:28,-0.001,0.0,0.0,0.0
07/03/2022,04:45:27,-0.001,0.0,0.0,0.0
07/03/2022,04:46:27,-0.001,0.0,0.0,0.0
07/03/2022,04:47:28,-0.001,0.0,0.0,0.0
07/03/2022,04:48:28,-0.001,0.0,0.0,0.0
07/03/2022,04:49:28,-0.001,0.0,0.0,0.0
07/03/2022,04:50:27,-0.002,0.0,0.0,0.0
07/03/2022,04:51:28,0.000,0.0,0.0,0.0
07/03/2022,04:52:28,-0.001,0.0,0.0,0.0
07/03/2022,04:53:28,-0.001,0.0,0.0,0.0
07/03/2022,04:54:36,-0.001,0.0,0.0,0.0
07/03/2022,04:55:28,0.000,0.0,0.0,0.0
07/03/2022,04:56:27,0.000,0.0,0.0,0.0
07/03/2022,04:57:37,-0.001,0.0,0.0,0.0
07/03/2022,04:58:26,-0.001,0.0,0.0,0.0
07/03/2022,04:59:28,-0.001,0.0,0.0,0.0
07/03/2022,05:00:28,-0.001,0.0,0.0,0.0
07/03/2022,05:01:28,-0.001,0.0,0.0,0.0
07/03/2022,05:02:28,-0.001,0.0,0.0,0.0
07/03/2022,05:03:27,-0.000,0.0,0.0,0.0
07/03/2022,05:04:28,-0.001,0.0,0.0,0.0
07/03/2022,05:05:28,-0.001,0.0,0.0,0.0
07/03/2022,05:06:28,-0.001,0.0,0.0,0.0
07/03/2022,05:07:37,-0.001,0.0,0.0,0.0
07/03/2022,05:08:35,-0.000,0.0,0.0,0.0
07/03/2022,05:09:27,-0.001,0.0,0.0,0.0
07/03/2022,05:10:28,-0.001,0.0,0.0,0.0
07/03/2022,05:11:30,-0.001,0.0,0.0,0.0
07/03/2022,05:12:28,0.000,0.0,0.0,0.0
07/03/2022,05:13:29,-0.001,0.0,0.0,0.0
07/03/2022,05:14:28,-0.001,0.0,0.0,0.0
07/03/2022,05:15:28,-0.001,0.0,0.0,0.0
07/03/2022,05:16:28,-0.000,0.0,0.0,0.0
07/03/2022,05:17:28,-0.001,0.0,0.0,0.0
07/03/2022,05:18:28,0.000,0.0,0.0,0.0
07/03/2022,05:19:28,0.000,0.0,0.0,0.0
07/03/2022,05:20:27,-0.001,0.0,0.0,0.0
07/03/2022,05:21:28,-0.001,0.0,0.0,0.0
07/03/2022,05:22:36,-0.001,0.0,0.0,0.0
07/03/2022,05:23:44,-0.001,0.0,0.0,0.0
07/03/2022,05:25:29,-0.001,0.0,0.0,0.0
07/03/2022,05:26:27,-0.001,0.0,0.0,0.0
07/03/2022,05:27:28,-0.001,0.0,0.0,0.0
07/03/2022,05:28:28,-0.001,0.0,0.0,0.0
07/03/2022,05:29:28,-0.001,0.0,0.0,0.0
07/03/2022,05:30:28,-0.001,0.0,0.0,0.0
07/03/2022,05:31:28,0.000,0.0,0.0,0.0
07/03/2022,05:32:28,-0.001,0.0,0.0,0.0
07/03/2022,05:33:19,-0.001,0.0,0.0,0.0
07/03/2022,05:34:29,-0.001,0.0,0.0,0.0
07/03/2022,05:35:37,-0.002,0.0,0.0,0.0
07/03/2022,05:36:26,-0.002,0.0,0.0,0.0
07/03/2022,05:37:28,-0.001,0.0,0.0,0.0
07/03/2022,05:38:28,-0.001,0.0,0.0,0.0
07/03/2022,05:39:27,-0.001,0.0,0.0,0.0
07/03/2022,05:40:28,-0.001,0.0,0.0,0.0
07/03/2022,05:41:28,-0.002,0.0,0.0,0.0
07/03/2022,05:42:28,-0.001,0.0,0.0,0.0
07/03/2022,05:43:28,0.000,0.0,0.0,0.0
07/03/2022,05:44:27,-0.001,0.0,0.0,0.0
07/03/2022,05:45:45,-0.001,0.0,0.0,0.0
07/03/2022,05:47:29,-0.001,0.0,0.0,0.0
07/03/2022,05:48:28,-0.001,0.0,0.0,0.0
07/03/2022,05:49:28,-0.001,0.0,0.0,0.0
07/03/2022,05:50:28,-0.001,0.0,0.0,0.0
07/03/2022,05:51:27,-0.001,0.0,0.0,0.0
07/03/2022,05:52:28,-0.002,0.0,0.0,0.0
07/03/2022,05:53:38,-0.001,0.0,0.0,0.0
07/03/2022,05:54:27,-0.001,0.0,0.0,0.0
07/03/2022,05:55:29,-0.002,0.0,0.0,0.0
07/03/2022,05:56:36,-0.001,0.0,0.0,0.0
07/03/2022,05:57:28,-0.001,0.0,0.0,0.0
07/03/2022,05:58:27,-0.001,0.0,0.0,0.0
07/03/2022,05:59:28,-0.001,0.0,0.0,0.0
07/03/2022,06:00:37,-0.001,0.0,0.0,0.0
07/03/2022,06:01:26,-0.001,0.0,0.0,0.0
07/03/2022,06:02:28,-0.001,0.0,0.0,0.0
07/03/2022,06:03:36,-0.002,0.0,0.0,0.0
07/03/2022,06:04:29,-0.001,0.0,0.0,0.0
07/03/2022,06:05:28,-0.001,0.0,0.0,0.0
07/03/2022,06:06:28,-0.001,0.0,0.0,0.0
07/03/2022,06:07:28,-0.001,0.0,0.0,0.0
07/03/2022,06:08:27,-0.001,0.0,0.0,0.0
07/03/2022,06:09:28,-0.000,0.0,0.0,0.0
07/03/2022,06:10:28,-0.001,0.0,0.0,0.0
07/03/2022,06:11:28,-0.000,0.0,0.0,0.0
07/03/2022,06:12:28,-0.001,0.0,0.0,0.0
07/03/2022,06:13:28,-0.001,0.0,0.0,0.0
07/03/2022,06:14:28,-0.001,0.0,0.0,0.0
07/03/2022,06:15:28,-0.001,0.0,0.0,0.0
07/03/2022,06:16:28,-0.001,0.0,0.0,0.0
07/03/2022,06:17:28,-0.001,0.0,0.0,0.0
07/03/2022,06:18:28,-0.001,0.0,0.0,0.0
07/03/2022,06:19:28,0.000,0.0,0.0,0.0
07/03/2022,06:20:28,-0.001,0.0,0.0,0.0
07/03/2022,06:21:36,-0.001,0.0,0.0,0.0
07/03/2022,06:22:28,-0.001,0.0,0.0,0.0
07/03/2022,06:23:28,-0.001,0.0,0.0,0.0
07/03/2022,06:24:37,-0.000,0.0,0.0,0.0
07/03/2022,06:25:26,-0.001,0.0,0.0,0.0
07/03/2022,06:26:28,-0.001,0.0,0.0,0.0
07/03/2022,06:27:28,-0.000,0.0,0.0,0.0
07/03/2022,06:28:28,-0.001,0.0,0.0,0.0
07/03/2022,06:29:28,-0.000,0.0,0.0,0.0
07/03/2022,06:30:28,-0.000,0.0,0.0,0.0
07/03/2022,06:31:28,-0.000,0.0,0.0,0.0
07/03/2022,06:32:29,0.000,0.0,0.0,0.0
07/03/2022,06:33:28,0.000,0.0,0.0,0.0
07/03/2022,06:34:28,0.001,0.0,0.0,0.0
07/03/2022,06:35:28,-0.000,0.0,0.0,0.0
07/03/2022,06:36:28,0.000,0.0,0.0,0.0
07/03/2022,06:37:28,0.000,0.0,0.0,0.0
07/03/2022,06:38:28,0.000,0.0,0.0,0.0
07/03/2022,06:39:28,0.000,0.0,0.0,0.0
07/03/2022,06:40:28,0.000,0.0,0.0,0.0
07/03/2022,06:41:28,-0.000,0.0,0.0,0.0
07/03/2022,06:42:36,0.000,0.0,0.0,0.0
07/03/2022,06:43:28,0.001,0.0,0.0,0.0
07/03/2022,06:44:28,0.001,0.0,0.0,0.0
07/03/2022,06:45:37,0.001,0.0,0.0,0.0
07/03/2022,06:46:27,0.001,0.0,0.0,0.0
07/03/2022,06:47:28,0.001,0.0,0.0,0.0
07/03/2022,06:48:28,0.000,0.0,0.0,0.0
07/03/2022,06:49:36,0.001,0.0,0.0,0.0
07/03/2022,06:50:28,0.001,0.0,0.0,0.0
07/03/2022,06:51:28,0.000,0.0,0.0,0.0
07/03/2022,06:52:28,0.002,0.0,0.0,0.0
07/03/2022,06:53:28,0.001,0.0,0.0,0.0
07/03/2022,06:54:28,0.001,0.0,0.0,0.0
07/03/2022,06:55:28,0.002,0.0,0.0,0.0
07/03/2022,06:56:28,0.001,0.0,0.0,0.0
07/03/2022,06:57:30,0.002,0.0,0.0,0.0
07/03/2022,06:58:28,0.003,0.0,0.0,0.0
07/03/2022,06:59:28,0.003,0.0,0.0,0.0
07/03/2022,07:00:28,0.003,0.0,0.0,0.0
07/03/2022,07:01:28,0.004,0.0,0.0,0.0
07/03/2022,07:02:28,0.004,0.0,0.0,0.0
07/03/2022,07:03:28,0.004,0.0,0.0,0.0
07/03/2022,07:04:28,0.003,0.0,0.0,0.0
07/03/2022,07:05:30,0.005,0.0,0.0,0.0
07/03/2022,07:06:28,0.005,0.0,0.0,0.0
07/03/2022,07:07:28,0.006,0.0,0.0,0.0
07/03/2022,07:08:28,0.006,0.0,0.0,0.0
07/03/2022,07:09:28,0.006,0.0,0.0,0.0
07/03/2022,07:10:28,0.006,0.0,0.0,0.0
07/03/2022,07:11:29,0.006,0.0,0.0,0.0
07/03/2022,07:12:28,0.006,0.0,0.0,0.0
07/03/2022,07:13:28,0.007,0.0,0.001,0.001
07/03/2022,07:14:28,0.008,0.0,0.001,0.0
07/03/2022,07:15:28,0.010,0.0,0.001,0.0
07/03/2022,07:16:28,0.009,0.0,0.001,0.0
07/03/2022,07:17:36,0.009,0.0,0.001,0.0
07/03/2022,07:18:28,0.008,0.0,0.001,0.0
07/03/2022,07:19:28,0.010,0.0,0.001,0.0
07/03/2022,07:20:29,0.009,0.0,0.002,0.001
07/03/2022,07:21:28,0.010,0.0,0.002,0.0
07/03/2022,07:22:29,0.011,0.0,0.002,0.0
07/03/2022,07:23:29,0.011,0.0,0.002,0.0
07/03/2022,07:24:28,0.012,0.0,0.002,0.0
07/03/2022,07:25:28,0.012,0.0,0.003,0.001
07/03/2022,07:26:28,0.014,0.0,0.003,0.0
07/03/2022,07:27:28,0.014,0.0,0.003,0.0
07/03/2022,07:28:28,0.015,0.0,0.003,0.0
07/03/2022,07:29:28,0.016,0.0,0.004,0.001
07/03/2022,07:30:28,0.017,0.0,0.004,0.0
07/03/2022,07:31:28,0.017,0.0,0.004,0.0
07/03/2022,07:32:28,0.018,0.0,0.004,0.0
07/03/2022,07:33:45,0.018,0.0,0.005,0.001
07/03/2022,07:35:28,0.019,0.0,0.005,0.0
07/03/2022,07:36:28,0.022,0.0,0.006,0.001
07/03/2022,07:37:28,0.024,0.0,0.006,0.0
07/03/2022,07:38:28,0.026,0.0,0.006,0.0
07/03/2022,07:39:28,0.027,0.0,0.007,0.001
07/03/2022,07:40:28,0.028,0.0,0.007,0.0
07/03/2022,07:41:28,0.030,0.0,0.008,0.001
07/03/2022,07:42:37,0.031,0.0,0.008,0.0
07/03/2022,07:43:27,0.033,0.0,0.009,0.001
07/03/2022,07:44:29,0.035,0.0,0.009,0.0
07/03/2022,07:45:36,0.036,0.0,0.01,0.001
07/03/2022,07:46:28,0.038,0.0,0.011,0.001
07/03/2022,07:47:28,0.038,0.0,0.011,0.0
07/03/2022,07:48:28,0.039,0.0,0.012,0.001
07/03/2022,07:49:28,0.038,0.0,0.012,0.0
07/03/2022,07:50:28,0.040,0.0,0.013,0.001
07/03/2022,07:51:28,0.041,0.0,0.014,0.001
07/03/2022,07:52:29,0.042,0.0,0.014,0.0
07/03/2022,07:53:28,0.043,0.0,0.015,0.001
07/03/2022,07:54:28,0.043,0.0,0.016,0.001
07/03/2022,07:55:28,0.044,0.0,0.017,0.001
07/03/2022,07:56:29,0.042,0.0,0.017,0.0
07/03/2022,07:57:28,0.041,0.0,0.018,0.001
07/03/2022,07:58:29,0.040,0.0,0.019,0.001
07/03/2022,07:59:28,0.043,0.0,0.019,0.0
07/03/2022,08:00:28,0.044,0.0,0.02,0.001
07/03/2022,08:01:28,0.044,0.0,0.021,0.001
07/03/2022,08:02:28,0.045,0.0,0.022,0.001
07/03/2022,08:03:28,0.048,0.0,0.022,0.0
07/03/2022,08:04:29,0.049,0.0,0.023,0.001
07/03/2022,08:05:28,0.049,0.0,0.024,0.001
07/03/2022,08:06:28,0.050,0.0,0.025,0.001
07/03/2022,08:07:28,0.051,0.0,0.026,0.001
07/03/2022,08:08:28,0.054,0.0,0.027,0.001
07/03/2022,08:09:29,0.056,0.0,0.027,0.0
07/03/2022,08:10:28,0.056,0.0,0.028,0.001
07/03/2022,08:11:28,0.055,0.0,0.029,0.001
07/03/2022,08:12:28,0.055,0.0,0.03,0.001
07/03/2022,08:13:28,0.055,0.0,0.031,0.001
07/03/2022,08:14:36,0.053,0.0,0.032,0.001
07/03/2022,08:15:28,0.053,0.0,0.033,0.001
07/03/2022,08:16:28,0.052,0.0,0.034,0.001
07/03/2022,08:17:28,0.052,0.0,0.035,0.001
07/03/2022,08:18:29,0.049,0.0,0.035,0.0
07/03/2022,08:19:28,0.049,0.0,0.036,0.001
07/03/2022,08:20:28,0.053,0.0,0.037,0.001
07/03/2022,08:21:28,0.052,0.0,0.038,0.001
07/03/2022,08:22:29,0.054,0.0,0.039,0.001
07/03/2022,08:23:29,0.059,0.0,0.04,0.001
07/03/2022,08:24:28,0.066,0.0,0.041,0.001
07/03/2022,08:25:28,0.071,0.0,0.042,0.001
07/03/2022,08:26:15,0.076,0.0,0.043,0.001
07/03/2022,08:27:29,0.081,0.0,0.045,0.002
07/03/2022,08:28:36,0.084,0.0,0.046,0.001
07/03/2022,08:29:28,0.085,0.0,0.047,0.001
07/03/2022,08:30:28,0.086,0.0,0.049,0.002
07/03/2022,08:31:28,0.089,0.0,0.05,0.001
07/03/2022,08:32:28,0.093,0.0,0.052,0.002
07/03/2022,08:33:28,0.098,0.0,0.053,0.001
07/03/2022,08:34:29,0.103,0.0,0.055,0.002
07/03/2022,08:35:30,0.106,0.0,0.057,0.002
07/03/2022,08:36:28,0.110,0.0,0.059,0.002
07/03/2022,08:37:28,0.111,0.0,0.06,0.001
07/03/2022,08:38:28,0.114,0.0,0.062,0.002
07/03/2022,08:39:28,0.117,0.0,0.064,0.002
07/03/2022,08:40:28,0.123,0.0,0.066,0.002
07/03/2022,08:41:29,0.126,0.0,0.068,0.002
07/03/2022,08:42:28,0.132,0.0,0.07,0.002
07/03/2022,08:43:28,0.143,0.0,0.073,0.003
07/03/2022,08:44:28,0.149,0.0,0.075,0.002
07/03/2022,08:45:29,0.159,0.0,0.078,0.003
07/03/2022,08:46:37,0.170,0.0,0.081,0.003
07/03/2022,08:47:43,0.175,0.0,0.084,0.003
07/03/2022,08:49:28,0.180,0.0,0.089,0.005
07/03/2022,08:50:28,0.186,0.0,0.092,0.003
07/03/2022,08:51:28,0.189,0.0,0.095,0.003
07/03/2022,08:52:28,0.192,0.0,0.099,0.004
07/03/2022,08:53:29,0.196,0.0,0.102,0.003
07/03/2022,08:54:28,0.200,0.0,0.105,0.003
07/03/2022,08:55:28,0.203,0.0,0.108,0.003
07/03/2022,08:56:36,0.207,0.0,0.112,0.004
07/03/2022,08:57:28,0.210,0.0,0.115,0.003
07/03/2022,08:58:30,0.213,0.0,0.119,0.004
07/03/2022,08:59:28,0.215,0.0,0.122,0.003
07/03/2022,09:00:28,0.219,1.0,0.126,0.004
07/03/2022,09:01:29,0.222,1.0,0.13,0.004
07/03/2022,09:02:28,0.226,1.0,0.133,0.003
07/03/2022,09:03:28,0.229,1.0,0.137,0.004
07/03/2022,09:04:28,0.233,1.0,0.141,0.004
07/03/2022,09:05:29,0.236,1.0,0.145,0.004
07/03/2022,09:06:28,0.240,1.0,0.149,0.004
07/03/2022,09:07:36,0.244,1.0,0.153,0.004
07/03/2022,09:08:28,0.247,1.0,0.157,0.004
07/03/2022,09:09:28,0.250,1.0,0.161,0.004
07/03/2022,09:10:28,0.255,1.0,0.165,0.004
07/03/2022,09:11:28,0.242,1.0,0.17,0.005
07/03/2022,09:12:28,0.237,1.0,0.174,0.004
07/03/2022,09:13:28,0.237,1.0,0.177,0.003
07/03/2022,09:14:29,0.235,1.0,0.181,0.004
07/03/2022,09:15:28,0.233,1.0,0.185,0.004
07/03/2022,09:16:29,0.233,1.0,0.189,0.004
07/03/2022,09:17:28,0.240,1.0,0.193,0.004
07/03/2022,09:18:28,0.241,1.0,0.197,0.004
07/03/2022,09:19:28,0.241,1.0,0.201,0.004
07/03/2022,09:20:29,0.240,1.0,0.205,0.004
07/03/2022,09:21:28,0.242,1.0,0.209,0.004
07/03/2022,09:22:28,0.240,1.0,0.213,0.004
07/03/2022,09:23:28,0.241,1.0,0.217,0.004
07/03/2022,09:24:29,0.244,1.0,0.221,0.004
07/03/2022,09:25:29,0.247,1.0,0.225,0.004
07/03/2022,09:26:28,0.247,1.0,0.23,0.005
07/03/2022,09:27:28,0.250,1.0,0.234,0.004
07/03/2022,09:28:36,0.252,1.0,0.239,0.005
07/03/2022,09:29:28,0.254,1.0,0.242,0.003
07/03/2022,09:30:28,0.261,1.0,0.246,0.004
07/03/2022,09:31:36,0.263,1.0,0.251,0.005
07/03/2022,09:32:28,0.267,1.0,0.255,0.004
07/03/2022,09:33:28,0.273,1.0,0.26,0.005
07/03/2022,09:34:29,0.274,1.0,0.264,0.004
07/03/2022,09:35:29,0.274,1.0,0.269,0.005
07/03/2022,09:36:28,0.280,1.0,0.274,0.005
07/03/2022,09:37:28,0.283,1.0,0.278,0.004
07/03/2022,09:38:28,0.277,1.0,0.283,0.005
07/03/2022,09:39:28,0.266,1.0,0.288,0.005
07/03/2022,09:40:28,0.262,1.0,0.292,0.004
07/03/2022,09:41:29,0.261,1.0,0.296,0.004
07/03/2022,09:42:37,0.246,1.0,0.301,0.005
07/03/2022,09:43:28,0.248,1.0,0.305,0.004
07/03/2022,09:44:28,0.255,1.0,0.309,0.004
07/03/2022,09:45:29,0.259,1.0,0.313,0.004
07/03/2022,09:46:28,0.266,1.0,0.318,0.005
07/03/2022,09:47:28,0.309,1.0,0.322,0.004
07/03/2022,09:48:28,0.278,1.0,0.327,0.005
07/03/2022,09:49:28,0.270,1.0,0.332,0.005
07/03/2022,09:50:28,0.257,1.0,0.336,0.004
07/03/2022,09:51:45,0.251,1.0,0.342,0.006
07/03/2022,09:53:29,0.267,1.0,0.349,0.007
07/03/2022,09:54:28,0.269,1.0,0.353,0.004
07/03/2022,09:55:28,0.276,1.0,0.358,0.005
07/03/2022,09:56:29,0.294,1.0,0.363,0.005
07/03/2022,09:57:28,0.312,1.0,0.368,0.005
07/03/2022,09:58:29,0.326,1.0,0.373,0.005
07/03/2022,09:59:28,0.337,1.0,0.379,0.006
07/03/2022,10:00:28,0.345,1.0,0.384,0.005
07/03/2022,10:01:28,0.351,1.0,0.39,0.006
07/03/2022,10:02:28,0.354,1.0,0.396,0.006
07/03/2022,10:03:29,0.388,1.0,0.402,0.006
07/03/2022,10:04:29,0.459,1.0,0.409,0.007
07/03/2022,10:05:29,0.405,1.0,0.416,0.007
07/03/2022,10:06:28,0.412,1.0,0.423,0.007
07/03/2022,10:07:28,0.468,1.0,0.43,0.007
07/03/2022,10:08:28,0.497,1.0,0.438,0.008
07/03/2022,10:09:15,0.465,1.0,0.444,0.006
07/03/2022,10:10:29,0.522,1.0,0.454,0.01
07/03/2022,10:11:28,0.475,1.0,0.462,0.008
07/03/2022,10:12:28,0.417,1.0,0.47,0.008
07/03/2022,10:13:37,0.405,1.0,0.478,0.008
07/03/2022,10:14:28,0.406,1.0,0.484,0.006
07/03/2022,10:15:28,0.503,1.0,0.492,0.008